Flag for Italy Weather past 2 weeks in Bologna, Italy

Now
43 °F

Passing clouds.


Feels Like: 41 °F
Forecast: 27 / 47 °F
Wind: 3 mph from Northwest

Location: Bologna / Borgo Panigale

Current Time: Jan 27, 2015 at 3:54:25 PM

Latest Report: Jan 27, 2015 at 3:20 PM


Visibility: N/A

Pressure: 29.98 "Hg

Humidity: 66%

Dew point: 32 °F

Location of BolognaLocation

Historic Weather in Bologna — Graph

°F

Bologna temperature yesterday

Maximum temperature yesterday: 48 °F (at 12:50 PM)
Minimum temperature yesterday: 32 °F (at 11:20 PM)
Average temperature yesterday: 40 °F

Past Weeks' High & Low Weather Summary

 TemperatureHumidityPressure
High64 °F (Jan 17, 1:20 PM)100% (Jan 14, 3:50 AM)30.39 "Hg (Jan 14, 3:50 AM)
Low27 °F (Jan 13, 6:50 AM)28% (Jan 12, 2:20 PM)29.74 "Hg (Jan 23, 3:50 AM)
Average42 °F81%30.01 "Hg
* Reported Jan 12 2:20 PM — Jan 27 2:50 PM, Bologna, Weather by CustomWeather, © 2014

Note: Actual official high and low records may vary slightly from our data, if they occured in-between our weather recording intervals... More about our weather records

Advertising

Bologna weather history for previous 24 hours

 ConditionsComfort  
Time TempWeatherWind HumidityBarometerVisibility
2:50 PM
Jan 27
43 °FPassing clouds.5 mph66%29.98 "HgN/A
2:20 PM43 °FPassing clouds.5 mph66%29.98 "HgN/A
1:50 PM43 °FSunny.2 mph66%29.98 "Hg10 mi
1:20 PM43 °FPassing clouds.3 mph61%29.98 "HgN/A
12:50 PM43 °FSunny.3 mph61%30.01 "Hg10 mi
12:20 PM41 °FPassing clouds.3 mph66%30.01 "HgN/A
11:50 AM41 °FSunny.6 mph66%30.01 "Hg10 mi
11:20 AM41 °FSunny.6 mph61%30.01 "Hg10 mi
10:50 AM41 °FPassing clouds.5 mph57%30.01 "HgN/A
10:20 AM39 °FPassing clouds.5 mph61%30.01 "HgN/A
9:50 AM39 °FPassing clouds.6 mph56%30.01 "HgN/A
9:20 AM36 °FSunny.5 mph70%30.01 "Hg10 mi
8:50 AM36 °FSunny.8 mph65%30.01 "Hg10 mi
8:20 AM34 °FPassing clouds.3 mph70%30.01 "HgN/A
7:50 AM32 °FSunny.3 mph75%30.01 "Hg10 mi
7:20 AM34 °FClear.9 mph70%30.01 "Hg10 mi
6:50 AM34 °FClear.9 mph70%30.01 "Hg10 mi
6:20 AM34 °FClear.10 mph70%30.01 "Hg10 mi
5:50 AM34 °FClear.9 mph75%30.01 "Hg10 mi
5:20 AM34 °FClear.9 mph75%30.04 "Hg10 mi
4:50 AM34 °FClear.8 mph75%30.04 "Hg10 mi
4:20 AM34 °FClear.9 mph75%30.04 "Hg10 mi
3:50 AM34 °FClear.9 mph75%30.07 "Hg10 mi
3:20 AM34 °FClear.9 mph75%30.07 "Hg10 mi
2:50 AM34 °FClear.8 mph75%30.09 "Hg10 mi
2:20 AM32 °FClear.8 mph80%30.09 "Hg10 mi
1:50 AM32 °FClear.8 mph80%30.09 "Hg10 mi
1:20 AM32 °FClear.8 mph80%30.12 "Hg10 mi
12:50 AM34 °FClear.8 mph75%30.12 "Hg10 mi
12:20 AM34 °FClear.8 mph75%30.12 "Hg10 mi
11:50 PM
Jan 26
34 °FClear.9 mph75%30.12 "Hg10 mi
11:20 PM32 °FClear.7 mph80%30.15 "Hg10 mi
10:50 PM34 °FClear.7 mph75%30.15 "Hg10 mi
10:20 PM34 °FClear.7 mph75%30.15 "Hg10 mi
9:50 PM34 °FClear.6 mph75%30.15 "Hg10 mi
9:20 PM36 °FClear.6 mph75%30.15 "Hg10 mi
8:50 PM34 °FClear.3 mph81%30.15 "Hg10 mi
8:20 PM36 °FClear.6 mph75%30.15 "Hg10 mi
7:50 PM36 °FClear.6 mph75%30.15 "Hg10 mi
7:20 PM37 °FClear.2 mph70%30.15 "Hg10 mi
6:50 PM39 °FClear.6 mph65%30.15 "Hg10 mi
6:20 PM39 °FClear.1 mph65%30.15 "Hg10 mi
5:50 PM43 °FClear.2 mph53%30.18 "Hg10 mi
5:20 PM45 °FPassing clouds.3 mph49%30.18 "HgN/A
4:50 PM46 °FPassing clouds.2 mph46%30.18 "HgN/A
4:20 PM46 °FPassing clouds.5 mph43%30.18 "HgN/A
3:50 PM48 °FPassing clouds.5 mph40%30.18 "HgN/A
3:20 PM46 °FScattered clouds.6 mph43%30.18 "HgN/A
Weather by CustomWeather, © 2014

See weather overviewHow to use our weather pages